Regional Weather Roundup
Issued by NWS Northern Indiana

Home | Current Version | Previous Version | Graphics & Text | Print | Product List | Glossary On
Versions: 1 2 3 4 5 6 7 8 9 10 11 12 13 14 15 16 17 18 19 20 21 22 23 24 25 26 27 28 29 30 31 32 33 34 35 36 37 38 39 40 41 42 43 44 45 46 47 48 49 50
000
ASUS43 KIWX 192200
RWRIWX

KIWX WEATHER ROUNDUP
NATIONAL WEATHER SERVICE NORTHERN INDIANA
500 PM EST THU JAN 19 2017

NOTE: "FAIR" INDICATES FEW OR NO CLOUDS BELOW 12,000 FEET WITH NO
SIGNIFICANT WEATHER AND/OR OBSTRUCTIONS TO VISIBILITY.

* THESE STATIONS ARE NOT UNDER NWS QUALITY CONTROL. THEY ALSO MAY NOT
  REPORT WEATHER SUCH AS PRECIPITATION OR FOG.

INZ001>027-192300-
NORTHERN INDIANA

CITY           SKY/WX    TMP DP  RH WIND       PRES   REMARKS
GARY*          CLOUDY    41  36  81 E7        29.88F HAZE
SOUTH BEND     CLOUDY    38  35  89 SE9       29.90F
ELKHART*       MOCLDY    39  36  87 SE6       29.91F FOG
GOSHEN         CLOUDY    38  34  85 E7        29.91F FOG
FORT WAYNE     CLOUDY    40  35  83 E8        29.93F
PERU/GRISSOM   LGT RAIN  40  40  99 E10       29.86F

$$
INZ028>050-192300-
CENTRAL INDIANA

CITY           SKY/WX    TMP DP  RH WIND       PRES   REMARKS
LAFAYETTE      CLOUDY    42  40  92 E13       29.84F FOG
KOKOMO*        LGT RAIN  41  38  89 E13       29.88F
MUNCIE*        CLOUDY    45  40  82 E8        29.89F
INDIANAPOLIS   CLOUDY    46  39  76 E10       29.83F

$$
MIZ043>046-050>051-056>058-064>065-071>073-077>080-192300-
SOUTHWEST LOWER MICHIGAN

CITY           SKY/WX    TMP DP  RH WIND       PRES   REMARKS
BATTLE CREEK   CLOUDY    41  35  79 E3        29.91F
BENTON HARBOR  CLOUDY    41  35  79 E7        29.89F HAZE
COLDWATER*     CLOUDY    37  35  92 E6        29.91F FOG
HILLSDALE*     CLOUDY    34  32  93 SE5       29.92F FOG     WCI  30
HOLLAND          N/A     39  35  86 E3        29.92F
GRAND RAPIDS   CLOUDY    39  34  82 CALM      29.92F HAZE
KALAMAZOO      CLOUDY    40  34  79 SE5       29.91F HAZE
STURGIS*       CLOUDY    37  34  90 E5        29.91F FOG
THREE RIVERS*  FAIR      39  35  86 CALM      29.91F FOG

$$
OHZ001>008-015>018-024>025-192300-
NORTHWEST OHIO

CITY           SKY/WX    TMP DP  RH WIND       PRES   REMARKS
DEFIANCE       CLOUDY    37  34  89 E5        29.95F
FINDLAY        CLOUDY    41  35  79 SE6       29.94F
TOLEDO EXPRESS CLOUDY    39  36  89 CALM      29.96F
TOLEDO METCALF MOCLDY    39  36  89 S5        29.97F
LIMA           MOCLDY    41  38  89 SE7       29.94S

$$
AND FOR LAKE MICHIGAN COASTAL AND OPEN LAKE BUOY OBSERVATIONS

STATION/POSITION TEMP    WIND        PRES    VSBY  WAVE
                 AIR SEA DIR/SP/G                  HT/PER
                 (F)     (DEG/KT/KT) (MB)    (MI)  (FT/S)
CALUMET HARBOR    35      60/  6/  8 1011.2F
MICHIGAN CITY     40      70/  5/  7   N/A
BURNS HARBOR      40     130/  5/ 10 1012.9F

$$
&&



USA.gov is the U.S. government's official web portal to all federal, state and local government web resources and services.